Houston, TX

1:30 AM CDT on July 27, 2016 (GMT -0500)
Hobby

Weather History for KHOU - October, 2012

Change the Weather History Date:

Saturday, October 27, 2012

  Actual Average Record
Temperature  
Mean Temperature 57 °F 68 °F  
Max Temperature 66 °F 79 °F 94 °F (2010)
Min Temperature 48 °F 58 °F 36 °F (1898)
Degree Days  
Heating Degree Days 8 2  
Month to date heating degree days 16 19  
Since 1 July heating degree days 16 20  
Cooling Degree Days 0 5  
Month to date cooling degree days 227 208  
Year to date cooling degree days 3426 3033  
Growing Degree Days 7 (Base 50)    
Moisture  
Dew Point 39 °F    
Average Humidity 56    
Maximum Humidity 77    
Minimum Humidity 34    
Precipitation  
Precipitation 0.00 in 0.18 in 2.72 in (1897)
Month to date precipitation 1.00 5.01  
Year to date precipitation 38.82 41.00  
Sea Level Pressure  
Sea Level Pressure 30.16 in    
Wind  
Wind Speed 17 mph (South)    
Max Wind Speed 21 mph    
Max Gust Speed 29 mph    
Visibility 10 miles    
Events      
T = Trace of Precipitation, MM = Missing Value Source: NWS Daily Summary

Daily Weather History Graph

Daily Weather History Graph

Search for Another Location

Airport or City:

Trip Planner

Search our weather history database for the weather conditions in past years. The results will help you decide how hot, cold, wet, or windy it might be!

Date:

Astronomy

Oct. 27, 2012 Rise Set
Actual Time 7:31 AM CDT 6:38 PM CDT
Civil Twilight 7:06 AM CDT 7:02 PM CDT
Nautical Twilight 6:38 AM CDT 7:30 PM CDT
Astronomical Twilight 6:10 AM CDT 7:58 PM CDT
Moon 5:20 PM CDT 5:33 AM CDT
Length of Visible Light 11h 55m
Length of Day
11h 07m
Waxing Gibbous, 96% of the Moon is Illuminated
Oct 27
Waxing Gibbous
Oct 29
Full
Nov 6
Last Quarter
Nov 13
New
Nov 20
First Quarter

Hourly Weather History & Observations

Time (CDT) Temp. Dew Point Humidity Pressure Visibility Wind Dir Wind Speed Gust Speed Precip Events Conditions
12:53 AM 54.0 °F 45.0 °F 72% 30.19 in 10.0 mi North 21.9 mph 26.5 mph N/A   Overcast
1:53 AM 53.1 °F 45.0 °F 74% 30.17 in 10.0 mi North 21.9 mph 27.6 mph N/A   Overcast
2:48 AM 53.6 °F 44.6 °F 72% 30.15 in 10.0 mi NNE 17.3 mph 25.3 mph N/A   Mostly Cloudy
2:53 AM 53.1 °F 44.1 °F 71% 30.17 in 10.0 mi NNE 12.7 mph - N/A   Mostly Cloudy
3:53 AM 53.1 °F 43.0 °F 69% 30.16 in 10.0 mi North 17.3 mph - N/A   Mostly Cloudy
4:53 AM 52.0 °F 42.1 °F 69% 30.16 in 10.0 mi NNE 17.3 mph - N/A   Mostly Cloudy
5:53 AM 51.1 °F 42.1 °F 71% 30.17 in 10.0 mi North 17.3 mph 23.0 mph N/A   Scattered Clouds
6:53 AM 50.0 °F 43.0 °F 77% 30.19 in 10.0 mi North 11.5 mph - N/A   Scattered Clouds
7:53 AM 50.0 °F 41.0 °F 71% 30.21 in 10.0 mi North 17.3 mph - N/A   Mostly Cloudy
8:53 AM 50.0 °F 39.9 °F 68% 30.21 in 10.0 mi North 19.6 mph - N/A   Mostly Cloudy
9:53 AM 52.0 °F 39.0 °F 61% 30.24 in 10.0 mi North 13.8 mph - N/A   Partly Cloudy
10:53 AM 55.0 °F 37.9 °F 53% 30.24 in 10.0 mi NNW 17.3 mph - N/A   Partly Cloudy
11:53 AM 59.0 °F 37.9 °F 46% 30.21 in 10.0 mi North 18.4 mph 26.5 mph N/A   Partly Cloudy
12:53 PM 61.0 °F 37.9 °F 42% 30.18 in 10.0 mi North 18.4 mph 24.2 mph N/A   Partly Cloudy
1:53 PM 63.0 °F 37.0 °F 38% 30.13 in 10.0 mi North 19.6 mph - N/A   Partly Cloudy
2:53 PM 64.0 °F 37.0 °F 37% 30.10 in 10.0 mi North 15.0 mph - N/A   Partly Cloudy
3:53 PM 64.0 °F 35.1 °F 34% 30.09 in 10.0 mi NNW 15.0 mph - N/A   Partly Cloudy
4:53 PM 64.4 °F 35.6 °F 34% 30.07 in 10.0 mi North 10.4 mph - N/A   Partly Cloudy
5:53 PM 62.1 °F 36.0 °F 38% 30.09 in 10.0 mi NNW 12.7 mph - N/A   Clear
6:53 PM 60.1 °F 36.0 °F 41% 30.11 in 10.0 mi North 12.7 mph - N/A   Scattered Clouds
7:53 PM 57.0 °F 36.0 °F 45% 30.13 in 10.0 mi North 11.5 mph - N/A   Clear
8:53 PM 55.9 °F 37.0 °F 49% 30.16 in 10.0 mi North 9.2 mph - N/A   Clear
9:53 PM 55.0 °F 37.0 °F 51% 30.17 in 10.0 mi North 11.5 mph - N/A   Clear
10:53 PM 55.4 °F 37.4 °F 51% 30.17 in 10.0 mi North 13.8 mph - N/A   Mostly Cloudy
11:53 PM 53.1 °F 37.0 °F 55% 30.19 in 10.0 mi North 9.2 mph - N/A   Scattered Clouds